Temperature
18 18 18 18 18 18 18 18 18 18 18 18 18 18 17 17 18 18 18 18 17 17 17 17 17 17 17 17 17 17 17 17 16 16 16 16 16 16 16 16 16 16 16
18 18 18 18 18 18 18 18 18 18 18 18 17 17 18 18 17 18 18 17 17 17 17 17 17 17 17 17 17 17 17 17 16 16 16 16 16 16 16 16 16 16 16
18 18 18 18 18 18 18 18 17 17 17 17 17 17 17 17 17 17 17 17 17 17 17 17 17 17 17 17 17 17 17 16 16 16 16 16 16 16 16 16 16 16 15
18 18 18 18 18 18 18 18 17 17 17 17 17 17 17 17 17 17 17 17 17 17 17 17 17 17 17 17 17 17 17 16 16 16 16 16 16 16 16 16 16 15 15
18 18 18 18 18 18 18 18 18 17 17 17 17 17 17 17 17 17 17 17 17 17 17 17 17 17 17 17 17 17 17 16 16 16 16 16 16 16 16 15 15 15 15
18 18 18 18 18 18 18 18 18 17 17 17 17 17 17 17 17 17 17 17 17 17 17 17 17 17 17 17 17 17 16 16 16 16 16 16 16 16 16 15 15 15 15
18 18 18 18 18 18 18 18 18 18 17 17 17 17 17 17 17 17 17 17 17 17 17 17 17 17 17 17 17 17 16 16 16 16 16 16 16 16 16 15 15 15 15
18 18 18 18 18 18 18 18 18 18 18 17 17 17 17 17 17 17 17 17 17 17 17 17 17 17 17 17 17 16 16 16 16 16 16 16 16 15 15 15 15 15 15
18 18 18 18 18 18 18 18 18 18 18 17 17 17 17 18 18 18 17 17 17 17 17 17 17 17 17 17 16 16 16 16 16 16 16 16 16 15 15 15 15 15 15
18 18 18 18 18 18 18 18 18 18 18 18 18 17 18 18 18 18 17 17 17 17 17 17 17 17 17 17 17 16 16 16 16 16 16 16 15 15 15 15 15 15 15
18 18 18 18 18 18 18 18 18 18 17 18 18 18 18 17 17 18 17 18 17 17 17 17 17 17 17 17 17 16 16 16 16 16 16 15 15 15 15 15 15 15 15
17 17 17 17 18 18 18 18 18 17 17 17 17 17 17 17 18 18 18 18 18 17 17 17 17 17 17 17 17 16 16 16 16 16 16 15 15 15 15 15 15 15 14
17 17 17 17 17 17 17 17 17 17 17 17 17 17 17 17 17 17 18 17 17 17 17 17 17 17 17 17 17 16 16 16 16 16 15 15 15 15 15 15 15 14 14
17 17 17 17 17 17 17 17 17 17 17 17 17 17 17 17 17 17 17 17 17 17 17 17 17 16 16 16 16 16 16 16 16 15 15 15 15 15 15 14 14 14 14
17 17 17 17 17 17 17 17 17 17 17 17 17 17 17 17 17 17 17 17 17 17 16 16 16 16 16 16 16 16 16 15 15 15 15 15 14 14 14 14 14 14 14
17 17 17 17 17 17 17 17 17 17 16 16 16 16 16 16 16 17 17 17 17 17 16 16 16 16 16 15 15 15 15 15 15 14 14 14 14 14 14 13 13 13 13
17 17 17 17 17 17 17 17 16 16 16 16 16 16 16 16 16 16 16 16 16 16 16 15 15 15 15 15 15 14 14 14 14 14 13 13 13 13 13 13 12 12 12
17 17 17 17 17 17 16 16 16 16 16 16 16 16 16 16 16 16 16 16 16 16 16 15 15 14 14 14 14 14 13 13 13 13 12 12 12 12 12 12 11 11 11
17 16 16 16 16 16 16 16 16 16 15 15 15 15 15 15 15 15 15 15 15 15 15 15 14 14 13 13 13 13 12 12 12 12 11 11 11 11 11 10 10 10 10
16 16 16 16 16 16 16 16 15 15 15 15 15 15 15 15 15 15 15 15 15 14 14 14 14 13 13 12 12 12 12 11 11 11 10 10 10 10 9 9 9 9 9
16 16 16 15 15 15 15 15 15 15 15 15 14 14 14 14 14 14 14 14 14 14 13 13 13 12 12 11 11 11 11 10 10 10 9 9 9 9 9 8 8 8 8
15 15 15 15 15 15 15 15 14 14 14 14 14 14 14 13 13 13 13 13 13 13 13 12 12 11 11 10 10 10 10 10 9 8 8 8 8 8 8 7 7 7 7
15 15 15 15 14 14 14 14 14 14 14 13 13 13 13 12 12 12 12 12 12 12 11 11 11 10 10 9 9 9 9 8 8 7 7 7 7 7 7 6 6 6 6
15 14 14 14 14 14 14 14 13 13 13 13 13 12 12 12 12 12 12 11 11 10 10 10 10 9 9 8 8 8 8 8 7 7 7 7 6 6 6 6 6 6 5
14 14 14 13 13 13 13 13 13 13 12 12 12 12 11 11 11 11 11 10 10 9 9 8 8 8 8 8 7 7 7 7 7 6 6 6 6 5 5 5 5 5 5
14 13 13 13 13 12 12 12 12 12 12 11 11 11 10 10 10 10 10 9 9 8 8 8 7 7 7 7 7 6 6 6 6 5 5 5 5 5 4 4 4 4 4
Wind_Speed
5 6 6 7 6 5 5 4 3 2 2 2 4 7 8 10 12 12 12 14 14 13 13 13 12 11 11 11 11 11 11 10 10 10 10 10 9 9 9 9 8 7 7
8 6 5 5 6 7 7 6 5 3 2 2 3 6 8 11 12 12 12 13 14 13 13 13 12 12 11 11 12 11 11 11 11 10 10 10 9 9 9 9 8 7 7
11 8 5 4 6 8 7 5 3 3 2 2 2 4 6 9 11 12 12 12 13 13 13 13 12 12 12 12 12 11 11 11 11 11 11 10 10 9 9 9 9 8 8
13 9 5 5 8 8 6 3 3 2 2 2 2 3 4 6 9 11 12 12 12 11 13 13 13 13 12 12 12 12 12 12 11 11 11 11 11 10 10 9 9 9 8
13 9 5 5 8 5 3 4 3 3 3 2 2 2 3 4 5 9 9 12 13 13 13 14 14 14 14 13 13 13 13 13 13 12 12 11 11 11 11 10 10 10 10
11 9 5 6 7 4 3 3 3 3 3 3 2 1 1 3 4 5 7 10 12 13 13 12 13 14 15 14 14 14 14 14 14 14 13 13 12 12 12 12 11 11 11
11 8 4 4 5 5 5 5 3 3 2 2 2 2 3 2 3 4 5 5 8 12 13 13 13 12 12 15 15 15 14 14 14 14 14 14 14 13 13 13 12 12 12
10 9 6 5 5 5 5 4 4 3 1 2 3 2 2 3 3 3 3 5 5 7 9 13 13 13 12 12 14 16 16 15 14 14 14 14 14 14 14 14 13 13 13
9 8 8 5 5 5 5 5 5 5 3 1 2 4 3 3 3 3 2 3 4 5 5 8 12 13 14 13 13 15 16 15 14 13 13 13 14 14 13 13 13 12 12
8 9 8 7 6 5 5 5 5 4 4 2 1 2 3 4 3 1 3 2 3 5 5 5 8 11 13 13 13 14 15 16 15 14 12 12 12 12 12 12 11 11 11
5 7 7 6 6 5 6 5 5 5 4 4 3 2 2 1 2 3 2 2 1 2 3 3 4 6 10 12 12 13 13 14 13 12 11 11 10 10 10 10 9 8 8
3 5 6 6 6 5 6 6 6 6 5 4 3 3 3 3 3 3 3 2 1 2 1 1 2 4 6 8 9 10 12 12 11 9 8 8 7 7 7 6 6 5 4
4 5 5 5 5 5 5 5 5 5 5 5 4 3 3 3 3 4 3 2 1 1 1 0 1 2 4 5 5 5 7 8 8 7 6 5 4 4 4 3 3 2 2
5 6 5 5 5 6 6 5 4 5 4 4 5 4 3 2 3 3 4 4 2 1 1 1 2 2 2 4 4 5 4 5 6 6 5 4 3 3 2 2 2 2 2
6 6 6 6 5 5 5 5 4 5 4 4 4 4 3 2 2 2 3 4 5 3 1 1 1 2 4 7 7 8 7 7 7 7 7 6 6 6 6 6 5 5 5
5 6 6 6 6 5 5 5 4 4 4 4 3 3 2 2 2 2 2 3 3 4 3 1 1 2 5 7 9 10 10 11 10 10 9 9 9 8 8 8 8 7 7
5 5 6 5 6 6 5 5 4 4 4 3 3 3 3 2 2 2 2 2 3 4 4 2 3 4 5 6 7 9 9 9 10 11 11 10 10 10 9 9 9 8 8
5 4 4 4 4 5 5 5 5 4 4 4 3 3 2 3 3 3 3 3 3 4 5 5 3 4 5 4 5 6 8 8 9 9 10 10 10 9 9 8 8 8 8
4 4 4 5 5 5 5 5 5 4 4 3 4 5 4 5 4 4 5 4 4 5 5 6 4 3 4 4 5 5 7 7 9 9 9 10 10 9 8 8 7 6 6
5 5 4 4 5 5 5 6 6 6 6 6 5 5 5 5 5 6 6 5 6 7 7 8 6 4 4 3 4 5 5 5 5 8 9 10 10 9 8 8 7 5 4
5 5 5 5 5 5 5 7 7 8 8 8 8 7 8 10 10 8 7 6 7 7 7 7 6 5 5 4 3 3 4 3 5 6 4 6 8 8 7 7 6 5 4
5 6 6 6 5 4 7 10 10 9 9 9 9 8 9 11 15 16 16 14 11 9 8 7 5 6 4 3 3 4 3 3 3 4 3 4 5 3 5 6 7 8 8
6 6 6 7 7 7 10 12 13 10 10 9 8 8 8 9 11 10 15 18 17 16 12 8 8 5 4 2 3 4 4 4 2 3 2 3 3 3 5 7 10 11 10
6 6 7 7 8 8 12 14 15 11 10 9 8 9 9 8 9 11 12 13 12 10 11 10 9 6 5 4 3 3 4 4 3 4 4 2 3 3 4 7 11 13 13
7 7 7 8 9 9 11 13 13 10 11 10 9 8 9 10 13 15 13 13 11 9 14 16 15 14 13 11 9 5 4 4 4 3 3 2 2 3 3 4 9 12 13
8 8 8 8 8 8 10 12 12 10 11 9 8 9 11 11 11 12 10 11 11 7 7 9 10 11 11 12 11 6 4 4 2 2 3 2 2 2 3 3 6 10 12
Wind_Direction
163 166 169 172 175 177 181 190 201 207 202 176 154 151 149 150 157 166 172 171 170 170 168 168 168 168 169 168 167 168 167 166 165 163 164 164 162 161 160 160 160 160 163
169 166 169 177 185 187 187 190 191 189 183 148 142 153 153 153 161 167 172 176 177 177 176 176 177 178 179 178 178 179 179 177 175 175 174 173 173 173 174 175 175 175 174
170 165 163 172 187 188 186 182 179 162 153 144 141 146 153 158 165 172 176 179 183 186 186 185 186 187 187 186 185 187 187 185 185 186 185 185 185 185 186 187 187 187 187
168 161 161 177 184 179 172 164 160 145 153 158 166 169 159 165 171 178 180 184 186 190 195 195 194 194 194 194 194 195 195 195 195 195 195 195 196 196 197 199 199 199 201
167 161 166 177 175 167 169 177 157 155 161 169 184 183 179 176 177 184 187 192 194 197 199 202 202 201 202 203 204 204 204 204 203 204 205 206 206 206 207 210 211 213 215
168 162 167 175 168 157 167 164 154 156 160 166 173 172 211 203 190 187 195 198 200 203 205 205 206 210 212 213 212 212 212 212 211 211 212 214 214 213 214 217 220 224 225
168 163 161 165 161 164 173 165 151 151 158 137 96 19 345 304 226 208 201 195 203 206 205 207 208 211 217 222 221 219 219 220 218 218 219 219 220 219 220 223 227 230 233
176 175 163 171 168 162 165 163 150 142 167 144 135 109 2 336 313 236 211 202 203 199 202 209 209 214 219 223 226 225 226 226 224 223 224 224 224 224 225 227 231 234 238
181 178 171 172 173 166 171 175 165 155 173 198 155 149 155 220 276 308 252 218 198 194 202 202 207 214 221 223 226 230 229 229 228 229 229 227 227 228 229 232 235 237 242
178 177 175 174 178 173 173 182 173 164 159 181 199 188 171 163 162 270 315 269 217 208 205 209 211 213 217 216 221 227 229 231 230 232 233 233 231 231 230 233 237 240 243
185 180 176 174 178 181 184 183 173 171 165 170 180 175 143 134 139 150 235 295 309 254 213 212 208 212 214 213 217 225 227 231 232 234 233 234 233 231 229 232 236 240 244
196 199 183 181 183 185 189 188 182 176 176 170 171 167 163 160 176 162 184 224 243 282 217 206 207 204 204 202 210 217 220 224 222 223 224 225 224 226 226 228 233 236 238
197 208 200 191 189 188 189 184 180 180 178 175 179 179 176 186 173 162 159 182 206 273 342 331 285 199 191 187 196 202 209 209 199 195 196 197 197 196 196 202 206 215 232
197 199 196 193 191 190 193 179 183 188 182 183 192 182 174 194 172 166 163 154 137 353 17 12 21 54 148 148 155 146 140 157 162 161 157 145 134 126 116 101 96 90 78
194 195 194 196 196 191 185 176 182 187 176 185 189 184 183 200 178 172 163 157 154 167 226 266 41 37 92 97 99 100 97 103 109 116 114 105 93 89 88 86 85 81 73
187 185 194 196 191 185 177 171 170 174 168 187 186 171 182 190 164 154 157 157 159 160 173 204 76 64 85 90 90 95 92 91 90 96 97 97 94 91 89 88 86 82 78
178 181 188 186 183 178 168 165 170 162 169 186 183 164 172 147 128 112 111 115 123 131 138 94 52 52 61 76 79 86 88 87 87 87 89 90 90 89 88 86 85 81 75
172 172 166 163 165 159 159 160 166 165 162 166 164 140 140 129 110 107 104 99 107 118 129 123 79 53 60 79 82 79 78 84 88 82 85 83 82 83 83 81 80 78 73
156 151 149 156 153 149 143 143 144 137 131 135 135 125 118 113 101 94 94 94 95 99 103 117 102 62 58 61 68 70 66 60 74 69 73 74 72 74 75 73 69 66 61
145 141 139 142 136 132 133 133 127 121 112 100 101 104 104 107 109 103 94 95 101 99 97 103 97 73 57 40 60 64 55 41 49 52 59 65 61 59 58 60 59 58 50
125 122 121 122 123 130 139 135 127 120 112 100 89 86 88 92 93 95 100 100 104 103 100 100 95 82 65 60 60 52 64 56 45 37 48 50 46 39 37 40 35 31 14
102 103 105 111 110 117 126 129 126 118 115 110 101 90 84 83 86 85 87 88 96 108 114 108 99 97 84 64 58 72 74 63 42 6 44 38 37 26 15 24 16 13 1
98 97 96 98 99 103 114 117 117 117 113 111 109 104 97 91 88 91 82 78 75 80 95 110 105 100 94 79 84 75 69 72 63 339 44 32 9 9 10 25 23 13 3
101 98 96 98 96 98 107 110 108 103 100 98 99 104 107 100 100 102 95 84 76 71 81 88 99 96 95 92 98 112 109 91 57 17 42 47 355 351 356 10 12 7 359
101 97 99 100 99 97 103 109 111 108 101 93 89 90 100 101 104 104 102 98 90 79 80 87 87 85 81 77 80 79 71 78 53 4 9 56 351 342 338 335 351 353 350
106 102 95 94 99 99 100 109 113 116 111 104 92 85 87 96 101 103 107 109 105 98 91 80 72 68 65 61 62 73 101 98 83 21 338 37 353 6 345 313 315 330 338
Height
1560 1562 1564 1566 1567 1568 1570 1571 1572 1573 1573 1574 1575 1576 1576 1577 1577 1578 1578 1579 1580 1580 1581 1582 1583 1583 1584 1585 1586 1586 1587 1588 1589 1589 1590 1590 1591 1591 1592 1592 1593 1593 1594
1561 1562 1564 1566 1567 1568 1570 1571 1572 1573 1574 1575 1575 1576 1577 1577 1578 1578 1579 1579 1580 1581 1581 1582 1583 1584 1584 1585 1586 1587 1587 1588 1589 1589 1590 1590 1591 1591 1592 1592 1593 1593 1594
1560 1562 1564 1565 1567 1568 1570 1571 1572 1573 1574 1575 1576 1576 1577 1577 1578 1579 1579 1580 1580 1581 1581 1582 1583 1583 1584 1585 1586 1586 1587 1588 1589 1589 1590 1590 1591 1591 1592 1592 1593 1593 1594
1560 1561 1563 1565 1566 1568 1569 1571 1572 1573 1574 1575 1576 1576 1577 1577 1578 1579 1579 1580 1580 1581 1581 1582 1582 1583 1584 1584 1585 1586 1587 1588 1588 1589 1589 1590 1590 1591 1591 1592 1592 1593 1593
1558 1560 1562 1564 1566 1567 1569 1570 1572 1573 1574 1575 1575 1576 1576 1577 1577 1578 1579 1579 1580 1580 1581 1581 1582 1582 1583 1584 1584 1585 1586 1587 1587 1588 1588 1589 1589 1590 1590 1591 1591 1592 1592
1557 1559 1561 1563 1565 1566 1568 1569 1570 1572 1573 1574 1575 1576 1576 1576 1577 1577 1578 1579 1579 1580 1580 1581 1581 1582 1582 1583 1584 1584 1585 1586 1586 1587 1587 1588 1588 1589 1589 1590 1590 1590 1591
1556 1557 1559 1561 1563 1565 1566 1568 1569 1571 1572 1573 1574 1575 1575 1576 1576 1576 1577 1577 1578 1578 1579 1580 1580 1581 1582 1582 1583 1583 1584 1584 1585 1585 1585 1586 1586 1587 1587 1588 1588 1589 1589
1554 1556 1558 1559 1561 1563 1565 1566 1568 1569 1570 1572 1573 1573 1574 1575 1574 1575 1575 1576 1577 1577 1578 1578 1579 1580 1580 1581 1581 1582 1582 1583 1583 1583 1584 1584 1585 1585 1586 1586 1586 1587 1587
1552 1554 1556 1558 1560 1562 1563 1565 1566 1567 1569 1570 1571 1572 1572 1572 1572 1573 1573 1574 1575 1576 1576 1577 1577 1578 1578 1579 1580 1580 1581 1581 1581 1582 1582 1582 1583 1583 1583 1584 1584 1584 1584
1550 1552 1554 1556 1558 1559 1561 1562 1564 1566 1567 1568 1569 1570 1571 1571 1571 1571 1572 1572 1573 1574 1574 1575 1575 1576 1576 1577 1578 1578 1579 1579 1580 1580 1580 1580 1580 1581 1581 1582 1582 1582 1582
1548 1550 1552 1554 1555 1557 1558 1560 1561 1563 1564 1565 1566 1567 1568 1569 1569 1570 1569 1571 1571 1572 1572 1573 1573 1574 1575 1575 1576 1576 1577 1577 1578 1578 1578 1578 1578 1579 1579 1579 1580 1580 1580
1544 1547 1549 1551 1552 1554 1556 1557 1559 1560 1562 1563 1564 1565 1566 1567 1567 1568 1568 1568 1569 1570 1570 1571 1572 1572 1573 1573 1574 1574 1574 1575 1575 1576 1576 1576 1576 1577 1577 1577 1577 1577 1577
1541 1543 1545 1547 1549 1551 1553 1554 1556 1557 1559 1560 1561 1562 1563 1564 1565 1566 1566 1566 1567 1568 1569 1569 1570 1570 1571 1571 1572 1572 1572 1573 1573 1573 1574 1574 1574 1574 1575 1575 1575 1574 1574
1538 1540 1542 1544 1546 1548 1550 1551 1552 1554 1555 1557 1558 1559 1560 1561 1563 1563 1564 1565 1565 1566 1567 1567 1568 1568 1568 1569 1569 1570 1570 1570 1570 1571 1571 1572 1572 1572 1572 1572 1572 1571 1571
1535 1537 1539 1541 1542 1544 1546 1548 1549 1550 1552 1553 1555 1556 1557 1558 1560 1561 1561 1562 1564 1563 1564 1565 1565 1566 1566 1566 1567 1567 1568 1568 1568 1568 1569 1569 1569 1569 1569 1569 1568 1568 1568
1532 1534 1535 1537 1539 1541 1543 1544 1546 1547 1548 1550 1551 1552 1554 1555 1556 1557 1558 1559 1560 1561 1561 1562 1563 1563 1564 1564 1564 1565 1565 1565 1566 1566 1566 1566 1566 1566 1566 1566 1565 1565 1564
1529 1531 1532 1534 1536 1538 1540 1541 1542 1544 1545 1547 1548 1549 1550 1552 1553 1554 1555 1556 1557 1558 1559 1560 1560 1561 1562 1562 1562 1563 1563 1563 1563 1563 1563 1563 1563 1563 1563 1563 1562 1562 1561
1526 1528 1530 1532 1533 1535 1536 1538 1539 1541 1542 1544 1545 1546 1547 1549 1550 1551 1552 1553 1554 1555 1556 1557 1558 1559 1559 1560 1560 1561 1561 1561 1561 1561 1561 1561 1561 1560 1560 1559 1559 1559 1558
1524 1525 1527 1529 1531 1532 1534 1536 1537 1538 1540 1541 1542 1543 1544 1546 1547 1549 1550 1551 1552 1553 1554 1554 1555 1556 1557 1558 1558 1559 1559 1559 1559 1560 1559 1559 1559 1558 1558 1557 1556 1556 1555
1521 1523 1525 1526 1528 1530 1532 1533 1534 1536 1537 1538 1539 1541 1542 1544 1545 1546 1547 1548 1549 1550 1552 1552 1553 1554 1555 1556 1556 1556 1557 1557 1557 1558 1558 1557 1557 1557 1556 1555 1554 1553 1552
1519 1521 1523 1525 1526 1528 1529 1531 1533 1534 1535 1536 1538 1539 1540 1542 1543 1545 1546 1547 1548 1549 1550 1551 1552 1552 1553 1554 1554 1555 1555 1555 1556 1556 1556 1556 1556 1555 1554 1553 1552 1551 1550
1518 1520 1521 1523 1524 1526 1528 1530 1531 1532 1534 1535 1536 1538 1539 1541 1542 1544 1545 1546 1547 1548 1549 1550 1550 1551 1552 1553 1553 1554 1554 1554 1554 1555 1555 1555 1554 1554 1553 1552 1551 1549 1548
1518 1520 1521 1522 1523 1525 1527 1528 1530 1531 1533 1534 1535 1537 1538 1540 1541 1542 1544 1545 1546 1547 1548 1549 1549 1550 1551 1552 1552 1553 1553 1553 1554 1554 1554 1553 1553 1552 1552 1550 1549 1547 1546
1519 1520 1521 1522 1523 1524 1526 1527 1529 1530 1531 1533 1535 1536 1538 1539 1541 1542 1543 1544 1545 1546 1548 1548 1549 1550 1552 1552 1553 1553 1553 1553 1554 1554 1554 1553 1552 1551 1550 1549 1548 1546 1544
1518 1519 1520 1521 1522 1523 1525 1527 1528 1529 1531 1533 1535 1537 1538 1539 1541 1543 1543 1544 1545 1547 1548 1549 1550 1551 1552 1553 1553 1553 1552 1552 1552 1553 1553 1552 1551 1550 1549 1548 1546 1544 1542
1518 1519 1520 1521 1523 1524 1525 1527 1528 1529 1531 1532 1534 1536 1539 1540 1542 1544 1545 1545 1545 1547 1549 1550 1551 1552 1553 1553 1553 1553 1553 1553 1552 1552 1552 1552 1550 1549 1548 1547 1545 1543 1541